Regional Weather Roundup
Issued by NWS Midland/Odessa, TX

Skip options and go directly to product.
Home | Oldest Version | Previous Version | Current Version | All | Graphics & Text | Save Text | Print | Product List | Glossary On

Skip product version selection by date and time.   
264
ASUS44 KMAF 302210
RWRMAF
MIDLAND AREA WEATHER ROUNDUP
NATIONAL WEATHER SERVICE MIDLAND TX
500 PM CDT SAT APR 30 2016

...IN SOUTHWEST TEXAS AND SOUTHEAST NEW MEXICO...

CITY           SKY/WX    TMP DP  RH WIND       PRES   REMARKS
ALPINE         SUNNY     79  13   8 S14G20    29.87F
ANDREWS        FAIR      77  30  18 SW12G20   29.78F
ARTESIA        SUNNY     79  27  14 NE13      29.71F
BIG SPRING     SUNNY     75  38  26 N5G16     29.80F
CARLSBAD       MOSUNNY   80  24  12 W7        29.71F
DRYDEN           N/A     88  17   7 VRB3      29.69F
FORT STOCKTON  SUNNY     84  19   9 SW7G21    29.74F
GUAD PASS      SUNNY     73  19  13 W23G39    29.84F
HOBBS          MOSUNNY   75  25  15 SW9G18    29.79F
MARFA          SUNNY     76  18  11 S14       29.84F
MIDLAND AIRPK  SUNNY     80  31  17 S3        29.78F
MIDLAND INTL   SUNNY     82  29  14 SW17      29.77F
ODESSA         SUNNY     80  28  15 S8        29.78F
PECOS          SUNNY     85  22  10 CALM      29.71F
PRESIDIO       FAIR      86  11   6 CALM      29.71F
SEMINOLE       PTSUNNY   76  35  22 SE10      29.79F
SNYDER           N/A     73  43  34 W3        29.82S
WINK           SUNNY     81  25  12 VRB6G20   29.72F
$$
...OTHER STATIONS IN TEXAS...

CITY           SKY/WX    TMP DP  RH WIND       PRES   REMARKS
ABILENE        SUNNY     75  49  39 VRB6      29.79F
AMARILLO       CLOUDY    60  39  45 W7        29.88F
AUSTIN         MOSUNNY   83  66  56 VRB3      29.70F
BROWNSVILLE    SUNNY     87  76  69 E10       29.62F
CORPUS CHRISTI PTSUNNY   92  69  47 E12       29.62F
DALLAS FTW     MOSUNNY   75  58  55 W7        29.74F
DEL RIO        SUNNY     90  31  12 CALM      29.67F
EL PASO        MOSUNNY   77  19  11 SW9       29.76F
HOUSTON INT    CLOUDY    84  68  58 SE8       29.67F
LUBBOCK        PTSUNNY   73  37  27 VRB7      29.81F
SAN ANGELO     SUNNY     79  46  31 VRB3      29.76F
SAN ANTONIO    MOSUNNY   84  62  47 E10       29.71F
WACO           SUNNY     81  63  54 CALM      29.72F
WICHITA FALLS  NOT AVBL
$$
...OTHER LOCATIONS IN NEW MEXICO...

CITY           SKY/WX    TMP DP  RH WIND       PRES   REMARKS
ALAMAGORDO     MOSUNNY   75  25  15 S13G18    29.76F
ALBUQUERQUE    PTSUNNY   63  32  31 MISG      29.82F
CANNON AFB     NOT AVBL
CLOVIS         PTSUNNY   63  39  42 E10       29.84S
HOLLOMAN AFB   MOSUNNY   75  23  14 SW12      29.74F
ROSWELL        MOSUNNY   75  26  16 CALM      29.73F
RUIDOSO          N/A     59  19  21 S5G17     29.88F
SANTA FE       MOSUNNY   57  29  34 CALM      29.83F
TRUTH OR CONSE PTSUNNY   70  22  16 S20G25    29.73F
TUCUMCARI      PTSUNNY   63  37  38 E8        29.83F
$$

USA.gov is the U.S. government's official web portal to all federal, state and local government web resources and services.